Pleasanton, CA

8:12 AM PDT on August 24, 2016 (GMT -0700)
Livermore Municipal

Weather History for KLVK - February, 2014

Change the Weather History Date:

Tuesday, February 18, 2014

  Actual Average Record
Temperature  
Mean Temperature 53 °F 51 °F  
Max Temperature 66 °F 61 °F 79 °F (1977)
Min Temperature 39 °F 41 °F 27 °F (1956)
Degree Days  
Heating Degree Days 12 14  
Month to date heating degree days 220 278  
Since 1 July heating degree days 1432 1876  
Cooling Degree Days 0 0  
Month to date cooling degree days 0 0  
Year to date cooling degree days 0 0  
Growing Degree Days 2 (Base 50)    
Moisture  
Dew Point 42 °F    
Average Humidity 66    
Maximum Humidity 92    
Minimum Humidity 40    
Precipitation  
Precipitation 0.00 in 0.13 in 0.70 in (1936)
Month to date precipitation 1.18 1.83  
Year to date precipitation 1.27 4.84  
Since 1 July precipitation 3.65  
Sea Level Pressure  
Sea Level Pressure 30.14 in    
Wind  
Wind Speed 3 mph (WSW)    
Max Wind Speed 15 mph    
Max Gust Speed 19 mph    
Visibility 10 miles    
Events      
T = Trace of Precipitation, MM = Missing Value Source: NWS Daily Summary

Daily Weather History Graph

Daily Weather History Graph

Search for Another Location

Airport or City:

Trip Planner

Search our weather history database for the weather conditions in past years. The results will help you decide how hot, cold, wet, or windy it might be!

Date:

Astronomy

Feb. 18, 2014 Rise Set
Actual Time 6:53 AM PST 5:49 PM PST
Civil Twilight 6:26 AM PST 6:16 PM PST
Nautical Twilight 5:55 AM PST 6:47 PM PST
Astronomical Twilight 5:25 AM PST 7:17 PM PST
Moon 9:43 PM PST (2/18) 8:33 AM PST (2/18)
Length of Visible Light 11h 50m
Length of Day
10h 56m
Waning Gibbous, 86% of the Moon is Illuminated
Feb 18
Waning Gibbous
Feb 22
Last Quarter
Mar 1
New
Mar 8
First Quarter
Mar 16
Full

Hourly Weather History & Observations

Time (PST) Temp. Windchill Dew Point Humidity Pressure Visibility Wind Dir Wind Speed Gust Speed Precip Events Conditions
12:53 AM 44.1 °F 42.5 °F 39.9 °F 85% 30.18 in 10.0 mi NW 3.5 mph - N/A   Clear
1:53 AM 41.0 °F 38.0 °F 37.9 °F 89% 30.17 in 10.0 mi East 4.6 mph - N/A   Clear
2:53 AM 42.1 °F - 39.0 °F 89% 30.16 in 10.0 mi Calm Calm - N/A   Clear
3:53 AM 42.1 °F - 39.0 °F 89% 30.15 in 10.0 mi Calm Calm - N/A   Clear
4:53 AM 39.9 °F - 37.0 °F 89% 30.16 in 10.0 mi Calm Calm - N/A   Clear
5:53 AM 41.0 °F - 37.9 °F 89% 30.16 in 10.0 mi Calm Calm - N/A   Clear
6:53 AM 41.0 °F - 37.9 °F 89% 30.18 in 10.0 mi Calm Calm - N/A   Clear
7:53 AM 43.0 °F - 39.9 °F 89% 30.20 in 10.0 mi Calm Calm - N/A   Clear
8:53 AM 45.0 °F - 39.9 °F 82% 30.20 in 10.0 mi Calm Calm - N/A   Clear
9:53 AM 48.9 °F - 42.1 °F 77% 30.20 in 10.0 mi Calm Calm - N/A   Clear
10:53 AM 51.1 °F - 44.1 °F 77% 30.19 in 10.0 mi Calm Calm - N/A   Clear
11:53 AM 57.9 °F - 46.0 °F 65% 30.18 in 10.0 mi WNW 6.9 mph - N/A   Clear
12:53 PM 61.0 °F - 42.1 °F 50% 30.14 in 10.0 mi Calm Calm - N/A   Scattered Clouds
1:53 PM 62.1 °F - 39.0 °F 43% 30.11 in 10.0 mi Variable 3.5 mph - N/A   Clear
2:53 PM 64.0 °F - 39.0 °F 40% 30.10 in 10.0 mi WSW 4.6 mph - N/A   Clear
3:53 PM 64.9 °F - 39.9 °F 40% 30.07 in 10.0 mi SSW 4.6 mph - N/A   Clear
4:53 PM 61.0 °F - 45.0 °F 56% 30.09 in 10.0 mi West 12.7 mph - N/A   Clear
5:53 PM 57.9 °F - 48.9 °F 72% 30.10 in 10.0 mi West 8.1 mph - N/A   Clear
6:53 PM 57.0 °F - 48.0 °F 72% 30.11 in 10.0 mi SSE 5.8 mph - N/A   Clear
7:53 PM 55.0 °F - 46.9 °F 74% 30.09 in 10.0 mi East 3.5 mph - N/A   Clear
8:53 PM 55.0 °F - 48.9 °F 80% 30.12 in 10.0 mi West 11.5 mph - N/A   Clear
9:53 PM 54.0 °F - 48.9 °F 83% 30.11 in 10.0 mi Calm Calm - N/A   Clear
10:53 PM 50.0 °F - 46.9 °F 89% 30.09 in 10.0 mi Calm Calm - N/A   Clear
11:53 PM 48.0 °F - 45.0 °F 89% 30.12 in 10.0 mi WSW 6.9 mph - N/A   Clear